• In Romania
  • List of Countries
  • For 7 days
  • Water Temperature
  • Satellite Maps
  • Weather Map
  • Weather Widgets
  • user-avatar
    Login

    Hourly Weather Nam Dinh

    Today, 25 June, Monday

    Time Temperature Precipitation Wind Pressure Humidity
    00:00 +31°C° 0.1 mm 3 mps 752 mmHg 72%
    01:00 +32°C° 0 mm 4 mps 752 mmHg 73%
    02:00 +31°C° 0.2 mm 3 mps 752 mmHg 74%
    03:00 +30°C° 0.2 mm 3 mps 751 mmHg 74%
    04:00 +30°C° 0.2 mm 3 mps 751 mmHg 74%
    05:00 +30°C° 0.1 mm 3 mps 751 mmHg 75%
    06:00 +30°C° 0.1 mm 3 mps 752 mmHg 75%
    07:00 +32°C° 0 mm 4 mps 752 mmHg 73%
    08:00 +33°C° 0 mm 4 mps 752 mmHg 67%
    09:00 +34°C° 0 mm 5 mps 752 mmHg 62%
    10:00 +35°C° 0 mm 5 mps 752 mmHg 56%
    11:00 +36°C° 0 mm 5 mps 752 mmHg 56%
    12:00 +36°C° 0 mm 5 mps 752 mmHg 55%
    13:00 +35°C° 0 mm 5 mps 752 mmHg 57%
    14:00 +35°C° 0 mm 5 mps 752 mmHg 57%
    15:00 +35°C° 0 mm 5 mps 752 mmHg 58%
    16:00 +34°C° 0 mm 4 mps 751 mmHg 59%
    17:00 +33°C° 0 mm 4 mps 751 mmHg 63%
    18:00 +32°C° 0 mm 4 mps 752 mmHg 67%
    19:00 +30°C° 0 mm 3 mps 752 mmHg 72%
    20:00 +30°C° 0.1 mm 3 mps 752 mmHg 73%
    21:00 +30°C° 0.1 mm 3 mps 753 mmHg 75%
    22:00 +30°C° 0.1 mm 3 mps 753 mmHg 76%
    23:00 +30°C° 0.1 mm 3 mps 753 mmHg 77%

    Tomorrow, 26 June, Tuesday

    Time Temperature Precipitation Wind Pressure Humidity
    00:00 +29°C° 0.1 mm 4 mps 753 mmHg 77%
    01:00 +29°C° 0.1 mm 4 mps 753 mmHg 78%
    02:00 +29°C° 0.1 mm 3 mps 753 mmHg 79%
    03:00 +29°C° 0.1 mm 3 mps 753 mmHg 80%
    04:00 +29°C° 0.1 mm 3 mps 753 mmHg 81%
    05:00 +29°C° 0.8 mm 3 mps 753 mmHg 80%
    06:00 +29°C° 0.8 mm 3 mps 753 mmHg 80%
    07:00 +29°C° 0.8 mm 3 mps 754 mmHg 79%
    08:00 +31°C° 0.5 mm 3 mps 754 mmHg 74%
    09:00 +33°C° 0.5 mm 4 mps 754 mmHg 69%
    10:00 +34°C° 0.5 mm 4 mps 755 mmHg 63%
    11:00 +34°C° 0.3 mm 4 mps 754 mmHg 61%
    12:00 +35°C° 0.3 mm 5 mps 754 mmHg 59%
    13:00 +35°C° 0.3 mm 5 mps 754 mmHg 57%
    14:00 +35°C° 0.5 mm 5 mps 754 mmHg 58%
    15:00 +34°C° 0.5 mm 5 mps 754 mmHg 60%
    16:00 +34°C° 0.5 mm 5 mps 753 mmHg 61%
    17:00 +33°C° 0 mm 4 mps 754 mmHg 64%
    18:00 +32°C° 0 mm 4 mps 754 mmHg 68%
    19:00 +30°C° 0 mm 4 mps 754 mmHg 71%
    20:00 +30°C° 0.1 mm 3 mps 754 mmHg 73%
    21:00 +30°C° 0.1 mm 3 mps 755 mmHg 74%
    22:00 +29°C° 0.1 mm 3 mps 756 mmHg 76%
    23:00 +29°C° 0.4 mm 3 mps 755 mmHg 76%

    Day after tomorrow, 27 June, Wednesday

    Time Temperature Precipitation Wind Pressure Humidity
    00:00 +29°C° 0.4 mm 3 mps 755 mmHg 77%
    01:00 +29°C° 0.4 mm 3 mps 755 mmHg 77%
    02:00 +29°C° 0.4 mm 3 mps 755 mmHg 78%
    03:00 +28°C° 0.4 mm 3 mps 755 mmHg 79%
    04:00 +28°C° 0.4 mm 3 mps 755 mmHg 80%
    05:00 +28°C° 0.1 mm 3 mps 755 mmHg 78%
    06:00 +29°C° 0.1 mm 3 mps 755 mmHg 77%
    07:00 +29°C° 0.1 mm 4 mps 756 mmHg 76%
    08:00 +30°C° 0 mm 4 mps 756 mmHg 71%
    09:00 +32°C° 0 mm 5 mps 756 mmHg 66%
    10:00 +33°C° 0 mm 5 mps 756 mmHg 61%
    11:00 +33°C° 0.1 mm 5 mps 756 mmHg 61%
    12:00 +33°C° 0.1 mm 6 mps 756 mmHg 62%
    13:00 +33°C° 0.1 mm 6 mps 755 mmHg 62%
    14:00 +33°C° 0 mm 6 mps 755 mmHg 62%
    15:00 +33°C° 0 mm 6 mps 754 mmHg 61%
    16:00 +33°C° 0 mm 6 mps 754 mmHg 61%
    17:00 +32°C° 0 mm 6 mps 754 mmHg 64%
    18:00 +30°C° 0 mm 5 mps 754 mmHg 67%
    19:00 +29°C° 0 mm 5 mps 754 mmHg 70%
    20:00 +29°C° 0 mm 5 mps 755 mmHg 70%
    21:00 +29°C° 0 mm 5 mps 755 mmHg 70%
    22:00 +29°C° 0 mm 5 mps 756 mmHg 70%
    23:00 +29°C° 0 mm 5 mps 755 mmHg 70%

    28 June, Thursday

    Time Temperature Precipitation Wind Pressure Humidity
    00:00 +29°C° 0 mm 5 mps 755 mmHg 70%
    01:00 +29°C° 0 mm 5 mps 755 mmHg 70%
    02:00 +29°C° 0 mm 4 mps 755 mmHg 71%
    03:00 +28°C° 0 mm 4 mps 754 mmHg 71%
    04:00 +28°C° 0 mm 4 mps 754 mmHg 72%
    05:00 +28°C° 0.1 mm 4 mps 754 mmHg 72%
    06:00 +28°C° 0.1 mm 4 mps 755 mmHg 73%
    07:00 +28°C° 0.1 mm 4 mps 755 mmHg 73%
    08:00 +29°C° 0 mm 4 mps 755 mmHg 71%
    09:00 +30°C° 0 mm 4 mps 755 mmHg 69%
    10:00 +30°C° 0 mm 4 mps 755 mmHg 67%
    11:00 +33°C° 0 mm 4 mps 754 mmHg 61%
    12:00 +35°C° 0 mm 4 mps 754 mmHg 54%
    13:00 +36°C° 0 mm 5 mps 753 mmHg 48%
    14:00 +37°C° 0 mm 5 mps 752 mmHg 46%
    15:00 +37°C° 0 mm 5 mps 752 mmHg 45%
    16:00 +37°C° 0 mm 5 mps 751 mmHg 44%
    17:00 +36°C° 0 mm 5 mps 751 mmHg 49%
    18:00 +35°C° 0 mm 5 mps 752 mmHg 55%
    19:00 +33°C° 0 mm 4 mps 752 mmHg 60%
    20:00 +33°C° 0 mm 4 mps 752 mmHg 63%
    21:00 +32°C° 0 mm 5 mps 753 mmHg 67%
    22:00 +32°C° 0 mm 5 mps 753 mmHg 70%
    23:00 +30°C° 0.1 mm 5 mps 753 mmHg 71%

    29 June, Friday

    Time Temperature Precipitation Wind Pressure Humidity
    00:00 +30°C° 0.1 mm 5 mps 752 mmHg 72%
    01:00 +30°C° 0.1 mm 4 mps 752 mmHg 74%
    02:00 +30°C° 0.2 mm 4 mps 752 mmHg 73%
    03:00 +29°C° 0.2 mm 4 mps 752 mmHg 73%
    04:00 +29°C° 0.2 mm 4 mps 752 mmHg 72%
    05:00 +29°C° 0 mm 4 mps 752 mmHg 70%
    06:00 +30°C° 0 mm 4 mps 752 mmHg 68%
    07:00 +30°C° 0 mm 4 mps 752 mmHg 66%
    08:00 +33°C° 0 mm 4 mps 752 mmHg 58%
    09:00 +35°C° 0 mm 5 mps 752 mmHg 50%
    10:00 +39°C° 0 mm 5 mps 752 mmHg 41%
    11:00 +40°C° 0 mm 5 mps 752 mmHg 39%
    12:00 +41°C° 0 mm 5 mps 751 mmHg 37%
    13:00 +41°C° 0 mm 5 mps 750 mmHg 35%
    14:00 +41°C° 0 mm 5 mps 750 mmHg 36%
    15:00 +41°C° 0 mm 5 mps 749 mmHg 37%
    16:00 +41°C° 0 mm 5 mps 748 mmHg 38%
    17:00 +39°C° 0 mm 5 mps 749 mmHg 44%
    18:00 +38°C° 0 mm 6 mps 749 mmHg 49%
    19:00 +35°C° 0 mm 6 mps 749 mmHg 55%
    20:00 +35°C° 0 mm 6 mps 750 mmHg 56%
    21:00 +34°C° 0 mm 6 mps 750 mmHg 58%
    22:00 +34°C° 0 mm 6 mps 751 mmHg 59%
    23:00 +33°C° 0 mm 5 mps 751 mmHg 60%

    30 June, Saturday

    Time Temperature Precipitation Wind Pressure Humidity
    00:00 +33°C° 0 mm 5 mps 750 mmHg 61%
    01:00 +33°C° 0 mm 5 mps 750 mmHg 62%
    02:00 +32°C° 0 mm 5 mps 750 mmHg 63%
    03:00 +32°C° 0 mm 5 mps 750 mmHg 63%
    04:00 +32°C° 0 mm 5 mps 750 mmHg 64%
    05:00 +32°C° 0 mm 5 mps 750 mmHg 64%
    06:00 +32°C° 0 mm 5 mps 750 mmHg 64%
    07:00 +32°C° 0 mm 5 mps 751 mmHg 65%
    08:00 +34°C° 0 mm 5 mps 751 mmHg 58%
    09:00 +35°C° 0 mm 5 mps 751 mmHg 52%
    10:00 +38°C° 0 mm 6 mps 751 mmHg 46%
    11:00 +39°C° 0 mm 5 mps 750 mmHg 43%
    12:00 +41°C° 0 mm 5 mps 750 mmHg 40%
    13:00 +42°C° 0 mm 5 mps 749 mmHg 37%
    14:00 +42°C° 0 mm 6 mps 749 mmHg 38%
    15:00 +42°C° 0 mm 6 mps 748 mmHg 39%
    16:00 +41°C° 0 mm 6 mps 748 mmHg 40%
    17:00 +40°C° 0 mm 6 mps 748 mmHg 43%
    18:00 +39°C° 0 mm 6 mps 748 mmHg 47%
    19:00 +36°C° 0 mm 6 mps 749 mmHg 50%
    20:00 +36°C° 0.1 mm 6 mps 749 mmHg 51%
    21:00 +35°C° 0.1 mm 6 mps 749 mmHg 52%
    22:00 +35°C° 0.1 mm 6 mps 750 mmHg 53%
    23:00 +34°C° 0 mm 6 mps 749 mmHg 55%
    Show more